Tracking 18957 objects as of 22-Jan-2018
HD Live streaming from Space Station
objects crossing your sky now

WESTAR 3

Track WESTAR 3 now!
WESTAR 3 is classified as:


NORAD ID: 11484
Int'l Code: 1979-072A
Perigee: 35,851.1 km
Apogee: 35,914.3 km
Inclination: 14.5 °
Period: 1,440.6 minutes
Semi major axis: 42253 km
RCS: 3.6567 m2 (large)
Launch date: August 10, 1979
Source: United States (US)
Launch site: AIR FORCE EASTERN TEST RANGE (AFETR)
aabbcc
Your satellite tracking list
Your tracking list is empty




NASA's NSSDC Master Catalog

Two Line Element Set (TLE):
1 11484U 79072A   18021.60952080  .00000029  00000-0  00000+0 0  9995
2 11484  14.5346 347.4940 0007484 290.6355 249.7775  0.99955207109925
Source of the keplerian elements: AFSPC